CEB642 RPVP-RPLL

Flight info

Callsign CEB642
Flight time N/A
Altitude 31000
Route DABOY1E DABOY W281 LEGED N884 LUBAN LUBAN3R
Aircraft A321/M-SDE3FGHIRWY/LB1

Departure

Time 2026-05-01 15:31
Airport Puerto Princesa International Airport / PAF Antonio Bautista Air Base (RPVP)

Arrival

Time N/A
Airport Ninoy Aquino International Airport (RPLL)
Time Latitude Longitude Altitude Speed Heading
2026-05-01 15:12 9.74505 118.75064 75 ft 0 kts
2026-05-01 15:23 9.74500 118.75063 75 ft 2 kts
2026-05-01 15:23 9.74485 118.75063 75 ft 2 kts
2026-05-01 15:23 9.74470 118.75063 75 ft 2 kts
2026-05-01 15:23 9.74455 118.75062 75 ft 2 kts
2026-05-01 15:24 9.74445 118.75062 75 ft 1 kts
2026-05-01 15:24 9.74430 118.75063 75 ft 2 kts 332°
2026-05-01 15:24 9.74418 118.75073 75 ft 2 kts 306°
2026-05-01 15:24 9.74412 118.75087 75 ft 2 kts 280°
2026-05-01 15:25 9.74411 118.75093 75 ft 0 kts 270°
2026-05-01 15:25 9.74412 118.75072 75 ft 3 kts 272°
2026-05-01 15:25 9.74413 118.75045 75 ft 3 kts 272°
2026-05-01 15:25 9.74414 118.75017 75 ft 3 kts 272°
2026-05-01 15:26 9.74416 118.74990 75 ft 3 kts 272°
2026-05-01 15:26 9.74417 118.74963 75 ft 3 kts 272°
2026-05-01 15:26 9.74418 118.74935 75 ft 3 kts 272°
2026-05-01 15:26 9.74419 118.74915 75 ft 0 kts 272°
2026-05-01 15:27 9.74419 118.74914 75 ft 0 kts 272°
2026-05-01 15:29 9.74419 118.74908 75 ft 2 kts 271°
2026-05-01 15:29 9.74420 118.74876 75 ft 6 kts 272°
2026-05-01 15:29 9.74424 118.74766 75 ft 10 kts 270°
2026-05-01 15:30 9.74315 118.74704 75 ft 11 kts 181°
2026-05-01 15:31 9.74219 118.75596 76 ft 127 kts 92°
2026-05-01 15:31 9.74120 118.77914 746 ft 177 kts 92°
2026-05-01 15:32 9.74873 118.80023 2090 ft 169 kts 28°
2026-05-01 15:32 9.77267 118.79356 2549 ft 208 kts 322°
2026-05-01 15:33 9.81342 118.77090 3309 ft 244 kts
2026-05-01 15:34 9.86833 118.77768 4534 ft 283 kts 10°